Regional Weather Roundup
Issued by NWS

Home | Current Version | Previous Version | Text Only | Print | Product List | Glossary On
Versions: 1 2 3 4 5 6 7 8 9 10 11 12 13 14 15 16 17 18 19 20 21 22 23 24 25 26 27 28 29 30 31 32 33 34 35 36 37 38 39 40 41 42 43 44 45 46 47 48 49 50
194
ASUS45 KCYS 012110
RWRWY

WYOMING REGIONAL WEATHER ROUNDUP
NATIONAL WEATHER SERVICE CHEYENNE WY
200 PM MST WED MAR 01 2017

NOTE:  "FAIR" INDICATES FEW OR NO CLOUDS BELOW 12,000 FEET
WITH NO SIGNIFICANT WEATHER AND/OR OBSTRUCTIONS TO VISIBILITY.

WYZ001-012200-
YELLOWSTONE NATIONAL PARK

CITY           SKY/WX    TMP DP  RH WIND       PRES   REMARKS
LK YELLOWSTONE   N/A     19  13  77 VRB7      30.17F WCI  10
W YELLOWSTONE  NOT AVBL

$$
WYZ002>013-054>058-071-098>099-012200-
NORTHERN WYOMING

CITY           SKY/WX    TMP DP  RH WIND       PRES   REMARKS
JACKSON        LGT SNOW  25  30 100 SE23      30.24S WCI  10
CODY           FAIR      39   6  25 W26G36    30.07F WCI  28
GREYBULL       FAIR      39  13  34 SE12G17   30.09F WCI  32
WORLAND        FAIR      40   7  25 SW6       30.10F
SHERIDAN       PTSUNNY   44  11  26 W18G31    30.01F
BUFFALO        FAIR      39   9  29 NW23G31   30.02S WCI  28
GILLETTE       PTSUNNY   40   6  24 W24G31    30.00F WCI  29
HULETT         CLOUDY    36  10  35 NW18G31   30.02F WCI  25
NEWCASTLE      FAIR      34  16  47 W8        30.05F WCI  27

$$
WYZ014>020-022>026-101>103-012200-
CENTRAL WYOMING

CITY           SKY/WX    TMP DP  RH WIND       PRES   REMARKS
BIG PINEY      FAIR      16   8  71 SE3       30.26F
PINEDALE       CLOUDY    18  12  79 E5        30.27S HAZE    WCI  11
DUBOIS         CLOUDY    28  12  50 NW23G38   30.11R WCI  14
LANDER         FAIR      29   7  39 CALM      30.13F
RIVERTON         N/A     32  13  45 S12       30.13F WCI  23
CASPER         FAIR      30  14  51 SW21      30.14F WCI  17
DOUGLAS        FAIR      32  15  49 W23G33    30.10S WCI  19

$$
WYZ021-027>030-104>119-012200-
SOUTHERN WYOMING

CITY           SKY/WX    TMP DP  RH WIND       PRES   REMARKS
EVANSTON       CLOUDY    25  14  63 SW22      30.33F WCI  10
FORT BRIDGER   FAIR      26  19  74 W29G37    30.33F HAZE    WCI   9
ROCK SPRINGS   CLOUDY    25  15  66 W26       30.29S WCI   9
DIXON            N/A     28  11  48 SW16G22   30.35S WCI  17
RAWLINS        MIX PCPN  23  13  65 W38G54    30.16R VSB 3/4 WCI   4
SARATOGA       MOCLDY    25  14  63 SW22      30.27R WCI  10
LARAMIE        FAIR      27   8  44 SW25G33   30.14R WCI  12
CHEYENNE       FAIR      33  12  41 W25G33    30.12F WCI  20
TORRINGTON     FAIR      35  17  47 W23G32    30.11F WCI  23
PINE BLUFFS    FAIR      37   9  30 W31G44    30.14F WCI  25

$$




USA.gov is the U.S. government's official web portal to all federal, state and local government web resources and services.